Location: Unspecified
(0.0000°N, 0.0000°E)
Time: 15:16:18
(UTC+00:00)

LightSail 2 - Pass Details

Date: 16 August 2019
Orbit: 701 x 732 km, 24.0° (Epoch: 21 August)

Event Time Altitude Azimuth Distance (km) Brightness Sun altitude
Rises 19:28:35 0° 267° (W) 3,080 9.8 -20.4°
Reaches altitude 10° 19:31:20 10° 279° (W) 2,157 8.8 -21.1°
Maximum altitude 19:35:36 27° 336° (NNW) 1,329 6.9 -22.1°
Enters shadow 19:39:07 13° 28° (NNE) 1,924 7.2 -23.0°
